Torna al catalogo

STARLINK-6135

AttivoComunicazioniVLEO
NORAD 56539·PAYLOAD·🇺🇸 United States

Lanciato May 14, 2023 da Cape Canaveral Space Force Station

Loading…

Prossimi Passaggi (prossime 24 ore)

TLE

AggiornatoSource: CelesTrak SupGP

Epoca: Sep 14, 2026, 21:33 UTC

1 56539C 23065AN  26257.89840278  .00027146  00000+0  98330-3 0  2574
2 56539  43.0010 238.3770 0000610 281.4192 306.2767 15.27563229    16

Traccia STARLINK-6135 in tempo reale con AllMySat

Download on the App Store